Regional Weather Roundup
Issued by NWS

Home | Current Version | Previous Version | Text Only | Print | Product List | Glossary Off
Versions: 1 2 3 4 5 6 7 8 9 10 11 12 13 14 15 16 17 18 19 20 21 22 23 24 25 26 27 28 29 30 31 32 33 34 35 36 37 38 39 40 41 42 43 44 45 46 47 48 49 50

000
ASUS43 KFSD 031410
RWRSD

WEATHER ROUNDUP FOR SOUTH DAKOTA
NATIONAL WEATHER SERVICE SIOUX FALLS SD
900 AM CDT FRI JUL 03 2015

NOTE: "FAIR" INDICATES FEW OR NO CLOUDS BELOW 12,000 FEET WITH NO
SIGNIFICANT WEATHER AND/OR OBSTRUCTIONS TO VISIBILITY.


SDZ001>005-009-010-012>017-031500-
NORTHWEST AND NORTH CENTRAL SOUTH DAKOTA

CITY           SKY/WX    TMP DP  RH WIND       PRES   REMARKS
BUFFALO          N/A     67  59  75 CALM      30.01S
FAITH            N/A     70  60  70 NW5       30.05S
MOBRIDGE       MOSUNNY   68  65  90 NW3       30.00R FOG
$$

SDZ012>016-024>037-041>051-057-063-072>074-031500-
SOUTHWEST AND SOUTH CENTRAL SOUTH DAKOTA

CITY           SKY/WX    TMP DP  RH WIND       PRES   REMARKS
RAPID CTY ARPT SUNNY     68  58  70 CALM      30.09S
PIERRE         MOSUNNY   68  66  93 VRB3      30.01R FOG
CUSTER         SUNNY     64  53  67 CALM      30.20S
ELLSWORTH AFB  SUNNY     67  58  72 SW5       30.08S
PHILIP         SUNNY     64  62  93 CALM      30.05S
PINE RIDGE     SUNNY     63  59  87 CALM      30.11S
SPEARFISH      FAIR      66  59  77 W3        30.12S
WINNER         FAIR      69  62  78 W6        30.04S
$$

SDZ004>011-016>023-039-040-031500-
NORTHEAST SOUTH DAKOTA

CITY           SKY/WX    TMP DP  RH WIND       PRES   REMARKS
ABERDEEN       CLOUDY    65  63  93 CALM      29.98S FOG
WATERTOWN      MOSUNNY   65  62  90 SW6       30.00S FOG
BROOKINGS      CLOUDY    59  55  88 CALM      30.04R VSB 1/4
SISSETON         N/A     71  63  75 W8        29.95S
$$

SDZ017-020-022-023-036>040-048>070-031500-
SOUTHEAST SOUTH DAKOTA

CITY           SKY/WX    TMP DP  RH WIND       PRES   REMARKS
SIOUX FALLS    CLOUDY    62  59  90 W3        30.03S
HURON          CLOUDY    61  61 100 S3        30.00S FOG
CHAMBERLAIN    FOG       64  64 100 CALM      30.02F VSB 1/2
MITCHELL       FOG       62  62 100 SW3       30.02S VSB 1/4
YANKTON        CLOUDY    63  59  88 CALM      30.02R
$$

ABBREVIATIONS USED IN REMARKS
   TC - TEMPERATURE IN CELSIUS
  WCI - WIND CHILL INDEX
   HX - HEAT INDEX
  VSB - VISIBILITY




USA.gov is the U.S. government's official web portal to all federal, state and local government web resources and services.